Wind_Speed
8 7 6 6 5 4 2 1 2 2 3 3 4 4 5 6 7 8 9 11 12 13 13 14 14 14 14 14 13 13 13 12 12 12 11 9 9 8 8 8 8 8 8
8 7 6 6 5 4 3 2 2 2 2 3 3 4 5 6 7 9 10 10 12 13 13 14 14 15 14 14 14 13 13 13 12 12 11 11 10 9 9 9 9 9 9
8 7 6 6 5 4 4 3 3 2 3 3 4 4 6 7 8 9 9 10 11 12 13 14 15 14 14 14 14 13 13 13 13 12 12 11 11 10 10 10 9 9 9
7 7 6 6 6 5 4 4 3 3 3 3 4 5 6 7 8 9 10 10 11 12 13 14 15 15 14 14 14 14 13 14 14 13 13 12 12 11 11 10 10 10 10
7 7 6 6 6 6 5 5 4 4 4 4 5 6 7 7 8 9 10 11 11 12 13 14 15 15 15 15 15 14 14 14 15 15 14 13 13 12 12 11 11 10 10
7 7 7 7 7 7 7 6 6 6 6 6 6 7 8 8 9 10 10 11 12 13 14 15 15 16 15 15 15 15 16 16 16 15 14 14 14 14 13 13 12 12 11
7 7 7 7 8 8 8 7 7 7 7 7 8 8 9 9 10 11 11 12 13 14 15 15 15 16 16 16 16 16 17 17 17 16 15 15 15 15 14 14 13 13 12
8 8 8 8 8 8 8 8 8 8 9 9 9 10 10 11 11 12 12 13 14 14 15 16 16 16 16 16 17 18 18 18 17 17 17 17 16 16 15 15 14 13 13
8 8 9 9 9 9 9 9 9 10 10 10 11 11 11 12 12 13 13 14 14 15 15 16 16 17 17 17 18 19 19 18 18 18 18 18 17 17 16 16 15 15 14
9 9 9 10 10 10 10 10 11 11 12 12 12 12 12 12 13 13 14 15 15 15 16 16 17 17 18 18 19 19 19 19 20 20 20 19 18 18 17 17 17 16 15
10 10 10 10 11 11 11 12 12 12 13 13 13 13 13 14 14 15 15 16 16 16 17 17 18 18 19 19 20 21 21 21 21 21 20 20 19 19 18 17 17 16 15
11 11 11 11 12 12 12 12 13 14 14 14 14 14 15 15 16 16 17 17 18 18 18 18 19 19 20 20 21 22 22 22 21 21 21 21 20 19 18 18 18 17 16
11 11 12 13 13 13 13 13 14 14 15 15 15 16 16 17 17 18 18 19 19 19 19 19 20 20 20 21 22 23 22 22 22 23 22 21 20 19 19 18 18 17 17
12 12 13 13 14 14 15 15 15 15 16 16 17 17 18 18 19 19 20 20 20 20 20 20 20 21 22 23 24 24 23 24 24 24 23 22 21 20 19 19 18 18 18
13 14 14 14 15 15 15 16 16 16 17 17 18 18 19 20 20 21 21 21 21 21 21 21 22 22 23 24 24 25 25 25 25 25 24 23 22 21 20 20 20 20 20
16 15 15 15 16 16 16 16 16 17 18 18 19 20 21 21 22 22 22 23 23 23 23 23 23 24 25 25 26 26 26 26 26 25 25 25 24 23 23 22 23 23 23
18 17 16 16 17 17 17 18 18 19 19 20 20 21 22 22 23 23 24 24 24 24 24 24 25 26 26 26 26 27 27 28 27 27 27 27 26 26 26 25 25 26 26
17 17 17 17 18 18 19 19 20 20 20 21 21 22 23 23 24 24 24 24 24 25 25 26 26 27 27 28 28 29 30 30 30 29 29 29 28 28 29 29 29 29 30
18 18 18 19 19 20 20 20 21 21 22 22 23 23 24 24 24 25 25 26 26 27 27 28 28 28 29 30 31 31 31 31 31 31 31 31 31 31 31 32 32 32 33
19 19 19 20 20 21 21 21 22 22 23 24 24 25 25 25 25 26 27 28 28 28 29 29 30 30 31 32 33 33 33 33 33 34 33 33 33 34 34 35 35 35 36
20 20 21 21 21 22 22 23 23 23 24 24 25 26 26 26 27 28 29 29 30 30 30 31 32 32 33 34 35 35 36 36 36 36 36 35 36 36 37 37 38 39 39
21 22 22 22 23 23 23 24 24 25 25 25 26 27 28 28 29 30 31 31 32 32 33 33 34 35 36 36 37 37 37 38 38 38 38 38 38 38 39 40 40 41 41
23 23 23 24 24 24 25 25 25 26 27 28 28 29 30 30 31 32 32 33 34 34 35 36 36 37 38 38 39 39 39 40 40 40 40 40 40 41 41 41 42 42 43
25 25 25 25 26 26 27 27 27 28 29 30 30 31 32 32 33 34 35 35 36 37 37 38 39 39 40 41 41 42 42 42 42 42 42 42 42 43 43 43 43 44 44
27 27 27 28 28 28 29 29 30 31 31 32 32 33 34 34 35 36 37 37 38 39 40 40 41 42 42 43 44 44 44 44 44 44 44 44 44 44 44 44 44 44 44
29 29 29 30 30 30 31 31 32 33 33 34 34 35 36 37 38 38 39 39 40 41 42 43 44 44 45 45 46 46 46 46 46 46 46 46 46 46 46 46 45 45 45
Wind_Direction
215 220 222 223 228 232 247 262 299 318 333 345 350 352 353 352 353 357 359 360 359 358 358 358 358 360 1 1 359 359 358 357 355 354 353 351 345 335 329 322 317 311 304
217 220 224 228 230 231 238 252 284 303 318 332 342 344 341 342 348 351 352 354 353 354 355 355 355 355 357 357 356 356 357 356 354 351 349 347 343 338 333 327 322 318 311
218 221 223 228 227 230 238 250 277 292 302 313 322 325 329 335 340 342 346 348 349 351 353 355 355 354 355 355 354 353 353 353 352 350 347 345 342 339 335 333 325 318 314
218 216 220 227 231 234 241 254 268 281 289 299 308 315 322 328 332 336 341 343 345 347 350 352 353 353 352 351 351 352 351 349 347 345 342 340 339 335 331 327 324 319 312
224 219 223 232 237 238 244 252 261 273 284 291 298 308 316 323 328 332 336 339 341 344 347 347 349 349 348 348 348 347 346 343 341 339 337 335 334 331 328 326 322 318 313
228 229 232 236 239 243 248 253 260 269 277 284 292 301 310 317 322 326 330 332 335 338 341 343 345 346 346 345 343 343 341 338 336 335 333 330 327 325 322 318 316 315 312
233 235 236 241 245 247 251 258 261 270 274 278 285 293 302 309 314 318 323 326 328 331 334 337 339 341 341 341 340 338 337 335 333 331 329 326 324 321 317 312 309 310 308
241 241 241 244 246 249 253 259 261 267 272 275 283 290 297 302 309 314 319 322 324 327 330 333 335 337 337 337 337 336 334 333 331 328 326 324 321 318 315 313 309 306 303
243 243 245 246 246 250 254 260 263 268 271 276 282 288 293 299 305 310 314 317 319 322 325 327 329 331 332 334 334 334 333 331 329 327 324 321 319 316 313 310 309 306 303
254 251 251 250 251 255 260 264 267 270 272 276 280 285 290 297 304 308 312 314 316 318 321 323 325 327 328 329 330 330 329 327 325 325 323 321 317 313 309 307 307 304 301
260 255 253 254 259 261 263 266 268 270 272 275 278 283 289 295 300 305 308 310 312 314 317 319 321 323 324 326 327 328 326 325 324 324 323 321 318 314 309 307 305 302 297
258 254 254 257 261 263 264 267 269 271 273 275 278 282 287 293 297 302 305 308 309 310 312 315 317 319 321 323 324 324 324 324 323 323 322 320 318 315 311 308 303 299 296
258 258 257 260 263 266 267 269 272 274 275 276 278 282 286 291 295 299 303 306 307 308 309 310 312 314 316 318 320 322 322 322 321 321 321 320 317 315 311 308 304 300 297
260 261 262 265 267 269 270 272 276 277 277 278 279 282 285 290 294 297 301 303 304 306 308 308 309 311 312 315 317 318 319 319 319 318 318 318 316 313 310 307 305 301 299
266 267 267 268 270 272 273 275 277 278 280 281 282 284 286 289 293 296 299 301 302 303 305 305 305 308 310 312 314 316 316 316 315 314 314 315 313 310 308 305 303 301 299
268 269 269 269 270 272 274 275 278 280 283 285 286 287 289 291 293 295 297 299 300 301 302 302 302 305 307 310 311 312 313 313 312 310 310 309 308 305 304 303 300 298 295
270 269 268 270 272 273 275 276 278 282 285 286 287 289 291 292 293 294 296 297 297 297 299 299 301 302 304 306 307 309 311 311 310 309 307 306 304 302 300 299 298 296 294
269 269 268 270 272 273 275 276 279 282 284 286 288 289 290 291 293 294 296 296 296 297 298 298 299 301 303 304 306 307 308 309 309 308 306 304 301 299 298 296 295 294 293
268 269 269 271 274 275 276 278 282 283 285 286 288 289 290 291 293 294 295 295 295 295 296 297 298 300 302 303 304 305 306 306 306 306 305 302 300 298 297 295 294 293 293
270 271 271 272 274 275 277 280 283 285 286 287 288 289 290 291 293 294 295 295 295 295 296 296 297 299 301 302 304 304 304 304 304 304 303 301 299 297 296 295 294 293 292
270 271 272 273 275 277 279 280 282 284 285 287 288 289 289 291 292 293 294 295 295 295 295 296 297 298 300 301 302 302 303 303 303 303 302 300 299 297 296 295 294 293 292
270 271 272 274 276 278 279 280 282 283 285 288 289 290 290 291 292 293 294 294 294 294 295 296 298 299 299 300 300 301 301 302 302 302 301 299 298 298 297 296 295 294 292
269 270 272 275 276 278 280 281 281 283 285 288 289 289 290 291 292 293 294 294 294 295 295 297 298 298 298 299 299 299 300 301 301 301 301 300 299 297 297 296 296 294 293
270 271 273 275 276 277 279 280 281 282 285 287 289 289 290 290 291 293 294 294 294 295 296 297 298 298 298 298 299 299 299 300 300 300 300 299 299 298 297 296 296 294 293
271 272 273 274 275 276 278 280 281 282 284 286 287 289 290 290 291 293 293 293 294 295 296 297 297 298 298 298 298 299 299 299 300 300 300 299 298 298 296 295 295 294 294
272 273 274 275 276 277 279 280 281 283 284 286 287 288 290 290 291 293 293 293 294 295 296 296 296 297 297 297 298 298 299 299 299 299 299 299 298 298 297 295 295 294 293
Height
5884 5885 5887 5888 5889 5890 5891 5891 5891 5892 5892 5892 5892 5892 5891 5891 5890 5889 5887 5886 5884 5882 5880 5878 5876 5873 5871 5869 5867 5865 5863 5861 5859 5857 5856 5855 5854 5853 5852 5851 5851 5851 5850
5883 5884 5886 5887 5888 5889 5890 5890 5891 5891 5891 5892 5891 5891 5891 5891 5890 5888 5887 5886 5884 5882 5880 5878 5876 5873 5871 5869 5867 5864 5862 5861 5859 5857 5856 5854 5854 5852 5851 5850 5850 5849 5849
5882 5883 5885 5886 5887 5888 5889 5890 5890 5890 5891 5891 5891 5891 5891 5890 5889 5888 5887 5885 5884 5882 5880 5877 5875 5873 5871 5868 5866 5864 5862 5860 5858 5857 5855 5854 5852 5851 5850 5849 5848 5847 5847
5881 5882 5884 5885 5886 5887 5888 5889 5889 5890 5890 5890 5891 5890 5890 5889 5889 5887 5886 5885 5883 5881 5879 5877 5874 5872 5870 5868 5866 5863 5861 5859 5857 5856 5854 5852 5851 5850 5849 5848 5846 5845 5845
5880 5881 5882 5884 5885 5886 5887 5888 5888 5889 5889 5889 5890 5889 5889 5888 5887 5886 5885 5884 5882 5880 5878 5876 5874 5871 5869 5867 5865 5863 5860 5858 5856 5854 5852 5850 5849 5847 5846 5845 5844 5843 5843
5879 5880 5881 5882 5883 5885 5885 5886 5887 5887 5888 5888 5888 5888 5888 5887 5886 5885 5884 5883 5881 5879 5877 5875 5873 5870 5868 5866 5864 5861 5859 5857 5854 5852 5850 5848 5847 5845 5844 5843 5842 5841 5840
5877 5879 5880 5881 5882 5883 5884 5885 5885 5886 5887 5887 5887 5887 5886 5886 5885 5884 5883 5881 5880 5878 5876 5874 5871 5869 5867 5864 5862 5860 5857 5855 5852 5850 5848 5846 5844 5842 5840 5839 5838 5837 5837
5876 5877 5878 5879 5880 5881 5882 5883 5884 5884 5885 5885 5885 5885 5885 5884 5883 5882 5881 5879 5878 5876 5874 5872 5869 5867 5865 5862 5860 5857 5855 5852 5849 5847 5845 5842 5840 5838 5837 5835 5835 5834 5834
5874 5875 5876 5877 5878 5879 5880 5881 5882 5882 5883 5883 5883 5883 5882 5882 5881 5880 5878 5877 5875 5873 5872 5870 5867 5865 5863 5860 5858 5855 5852 5849 5846 5844 5841 5838 5836 5834 5832 5831 5830 5830 5830
5872 5873 5874 5875 5876 5877 5878 5878 5879 5880 5880 5881 5881 5880 5880 5879 5878 5877 5876 5874 5873 5871 5869 5867 5865 5862 5860 5858 5855 5852 5849 5846 5843 5840 5836 5834 5831 5830 5828 5827 5826 5825 5824
5870 5871 5872 5873 5874 5875 5875 5876 5876 5877 5877 5877 5878 5877 5877 5876 5875 5874 5873 5871 5870 5868 5866 5864 5862 5860 5857 5855 5852 5849 5845 5842 5839 5836 5833 5830 5827 5825 5823 5822 5821 5819 5819
5868 5868 5869 5870 5871 5872 5872 5873 5873 5873 5874 5874 5874 5874 5874 5873 5872 5871 5869 5868 5866 5864 5862 5860 5858 5856 5854 5851 5848 5845 5842 5839 5835 5832 5829 5826 5823 5820 5818 5817 5815 5815 5814
5865 5866 5867 5868 5868 5869 5869 5869 5870 5870 5870 5870 5870 5870 5870 5869 5868 5867 5865 5864 5862 5860 5858 5856 5854 5852 5849 5847 5844 5841 5837 5834 5831 5828 5825 5821 5819 5816 5814 5812 5811 5810 5810
5862 5863 5864 5864 5865 5865 5866 5866 5866 5866 5866 5866 5866 5866 5865 5865 5864 5863 5861 5859 5858 5856 5854 5852 5850 5847 5845 5842 5839 5836 5833 5830 5826 5823 5820 5817 5814 5812 5810 5808 5807 5806 5805
5859 5860 5860 5861 5861 5861 5862 5862 5862 5862 5862 5862 5861 5861 5861 5860 5859 5858 5856 5855 5853 5851 5849 5847 5844 5842 5839 5837 5834 5830 5827 5824 5821 5818 5815 5812 5810 5807 5805 5804 5802 5801 5800
5855 5856 5856 5857 5857 5857 5858 5858 5858 5858 5857 5857 5857 5856 5855 5855 5854 5852 5851 5849 5847 5845 5843 5841 5839 5836 5833 5831 5827 5824 5821 5818 5815 5812 5810 5807 5804 5802 5800 5798 5797 5795 5794
5851 5852 5852 5852 5853 5853 5853 5853 5853 5853 5852 5852 5852 5851 5850 5849 5848 5846 5845 5843 5841 5839 5837 5835 5832 5830 5827 5824 5821 5818 5815 5812 5809 5806 5803 5800 5798 5795 5793 5792 5790 5789 5787
5847 5847 5847 5848 5848 5848 5848 5848 5848 5848 5847 5847 5846 5845 5844 5843 5841 5840 5838 5837 5835 5832 5830 5828 5825 5823 5820 5817 5814 5811 5808 5805 5802 5799 5796 5793 5790 5788 5786 5784 5783 5781 5779
5842 5842 5842 5843 5843 5843 5843 5842 5842 5842 5841 5841 5840 5839 5838 5836 5835 5833 5831 5830 5828 5825 5823 5820 5818 5815 5813 5810 5807 5803 5800 5797 5794 5791 5788 5785 5782 5780 5777 5775 5774 5772 5770
5837 5837 5837 5837 5837 5837 5837 5837 5836 5836 5835 5834 5833 5832 5831 5829 5828 5826 5824 5822 5820 5818 5815 5813 5810 5808 5805 5802 5798 5795 5792 5789 5786 5783 5779 5776 5773 5770 5767 5765 5763 5761 5759
5832 5832 5832 5832 5831 5831 5831 5830 5830 5829 5828 5827 5826 5825 5824 5822 5821 5819 5817 5814 5812 5810 5807 5805 5802 5799 5796 5793 5790 5786 5783 5779 5776 5773 5770 5766 5763 5760 5757 5754 5751 5749 5747
5826 5826 5826 5826 5825 5825 5824 5824 5823 5822 5821 5821 5819 5818 5816 5815 5813 5811 5808 5806 5803 5801 5799 5796 5793 5790 5787 5783 5780 5776 5773 5769 5766 5762 5759 5755 5752 5748 5745 5742 5739 5736 5733
5820 5820 5819 5819 5819 5818 5817 5817 5816 5815 5814 5813 5811 5810 5808 5806 5804 5802 5799 5797 5794 5792 5789 5786 5783 5780 5776 5773 5769 5765 5762 5758 5755 5751 5747 5744 5740 5736 5733 5729 5726 5723 5720
5813 5813 5813 5812 5812 5811 5810 5809 5808 5807 5806 5805 5803 5801 5799 5797 5795 5793 5790 5787 5785 5782 5779 5776 5773 5769 5765 5762 5758 5754 5751 5747 5743 5740 5736 5732 5728 5724 5720 5717 5713 5709 5706
5805 5805 5805 5804 5804 5803 5802 5801 5800 5798 5797 5796 5794 5792 5790 5788 5786 5783 5780 5777 5774 5771 5768 5765 5761 5757 5754 5750 5746 5742 5738 5735 5731 5727 5724 5720 5716 5712 5707 5703 5700 5696 5692
5797 5796 5796 5795 5795 5794 5793 5792 5791 5789 5788 5786 5784 5782 5780 5778 5775 5772 5770 5766 5763 5760 5756 5752 5749 5745 5741 5737 5733 5729 5725 5721 5718 5714 5710 5706 5702 5697 5693 5689 5685 5682 5678